IRIDIUM 106 1 41917U 17003A 26263.67836135 .00000109 00000+0 31981-4 0 9996 2 41917 86.3950 48.6001 0001838 87.2906 272.8500 14.34217072506899 IRIDIUM 103 1 41918U 17003B 26263.66567512 .00000166 00000+0 52291-4 0 9996 2 41918 86.3949 48.5049 0002251 88.9042 271.2411 14.34217912506918 IRIDIUM 109 1 41919U 17003C 26263.67203031 .00000162 00000+0 50644-4 0 9997 2 41919 86.3950 48.5632 0002152 91.7553 268.3890 14.34215426506880 IRIDIUM 102 1 41920U 17003D 26263.64030340 .00000168 00000+0 52874-4 0 9990 2 41920 86.3950 48.4981 0002059 92.7887 267.3544 14.34216943506964 IRIDIUM 105 1 41921U 17003E 26263.38959753 .00000024 00000+0 13661-5 0 9993 2 41921 86.4015 17.0597 0002360 97.4577 262.6887 14.34217799508786 IRIDIUM 104 1 41922U 17003F 26263.65299469 .00000272 00000+0 90159-4 0 9996 2 41922 86.3951 48.5368 0002411 92.5475 267.5997 14.34220199506951 IRIDIUM 114 1 41923U 17003G 26263.65933747 .00000166 00000+0 52212-4 0 9991 2 41923 86.3951 48.5170 0002205 90.8019 269.3430 14.34217592506932 IRIDIUM 108 1 41924U 17003H 26263.40854735 .00000065 00000+0 16014-4 0 9992 2 41924 86.4011 16.9361 0002165 96.3950 263.7493 14.34217876508756 IRIDIUM 112 1 41925U 17003J 26263.43734129 .00000164 00000+0 51604-4 0 9994 2 41925 86.3947 48.4475 0002174 92.9947 267.1497 14.34218120506920 IRIDIUM 111 1 41926U 17003K 26263.91304028 .00000162 00000+0 50868-4 0 9998 2 41926 86.3949 48.3214 0002126 90.8044 269.3395 14.34217619506973 IRIDIUM 113 1 42803U 17039A 26263.54415701 .00000027 00000+0 26286-5 0 9990 2 42803 86.3918 282.3171 0002336 92.2719 267.8744 14.34217595484850 IRIDIUM 123 1 42804U 17039B 26263.58563621 .00000018 00000+0 -67927-6 0 9999 2 42804 86.3974 313.7817 0002181 90.4204 269.7242 14.34217457483621 IRIDIUM 120 1 42805U 17039C 26263.88665649 .00000065 00000+0 15974-4 0 9990 2 42805 86.3906 281.9435 0002135 90.9494 269.1947 14.34217802484894 IRIDIUM 115 1 42806U 17039D 26263.86445983 .00000042 00000+0 64466-5 0 9992 2 42806 86.4444 282.0947 0002271 85.9395 274.2065 14.43279602488065 IRIDIUM 118 1 42807U 17039E 26263.89642738 .00000105 00000+0 30514-4 0 9999 2 42807 86.3984 313.6483 0002921 95.7716 264.3813 14.34211852483663 IRIDIUM 117 1 42808U 17039F 26263.84568226 .00000044 00000+0 85059-5 0 9991 2 42808 86.3972 313.6273 0002245 92.6445 267.5008 14.34217651483688 IRIDIUM 126 1 42809U 17039G 26263.87105319 .00000038 00000+0 63448-5 0 9996 2 42809 86.3973 313.6696 0002332 92.5254 267.6208 14.34217564483667 IRIDIUM 124 1 42810U 17039H 26263.52095477 .00000124 00000+0 31000-4 0 9997 2 42810 86.4440 250.4763 0002336 86.4118 273.7350 14.43280721488865 IRIDIUM 128 1 42811U 17039J 26263.23387401 -.00000090 00000+0 -39119-4 0 9990 2 42811 86.4015 345.4347 0001973 93.9484 266.1937 14.34217328483609 IRIDIUM 121 1 42812U 17039K 26263.54123864 .00000133 00000+0 40324-4 0 9992 2 42812 86.3974 313.8357 0002168 94.4763 265.6681 14.34217964483499 IRIDIUM 133 1 42955U 17061A 26263.26558729 .00000019 00000+0 -18146-6 0 9999 2 42955 86.4023 345.5418 0002171 94.4741 265.6702 14.34217700468409 IRIDIUM 100 1 42956U 17061B 26263.95692977 .00000009 00000+0 -39055-5 0 9990 2 42956 86.4022 345.1696 0002174 95.2676 264.8768 14.34217605468500 IRIDIUM 122 1 42957U 17061C 26263.92521674 .00000123 00000+0 36832-4 0 9998 2 42957 86.4023 345.1833 0002239 92.7415 267.4038 14.34218047468500 IRIDIUM 129 1 42958U 17061D 26263.95058768 .00000031 00000+0 38332-5 0 9997 2 42958 86.4026 345.2408 0002402 97.5395 262.6073 14.34217724468524 IRIDIUM 119 1 42959U 17061E 26262.94211510 .00000054 00000+0 12141-4 0 9996 2 42959 86.4023 345.6580 0002264 94.0464 266.0990 14.34217843468395 IRIDIUM 107 1 42960U 17061F 26263.58905981 .00000148 00000+0 45902-4 0 9996 2 42960 86.4024 345.4094 0002169 89.5631 270.5814 14.34217645468491 IRIDIUM 132 1 42961U 17061G 26263.59540185 .00000014 00000+0 -20207-5 0 9994 2 42961 86.4022 345.3857 0002095 95.4764 264.6671 14.34217616468490 IRIDIUM 136 1 42962U 17061H 26263.83641948 .00000060 00000+0 14446-4 0 9998 2 42962 86.4023 345.2924 0002182 95.1519 264.9926 14.34218210468541 IRIDIUM 139 1 42963U 17061J 26263.84276315 .00000028 00000+0 28285-5 0 9993 2 42963 86.4026 345.3533 0002178 94.1364 266.0081 14.34217732468558 IRIDIUM 125 1 42964U 17061K 26263.76030994 .00000010 00000+0 -34022-5 0 9994 2 42964 86.4030 345.4507 0002581 85.9100 274.2391 14.34217753468558 IRIDIUM 135 1 43070U 17083A 26263.59489775 .00000001 00000+0 -68175-5 0 9999 2 43070 86.3909 282.1261 0002135 91.7022 268.4418 14.34217403457823 IRIDIUM 138 1 43071U 17083B 26263.55050007 .00000036 00000+0 56567-5 0 9997 2 43071 86.3926 281.8550 0002407 90.8953 269.2519 14.34217547457803 IRIDIUM 116 1 43072U 17083C 26263.58855449 -.00000003 00000+0 -79658-5 0 9996 2 43072 86.3909 282.1136 0001891 90.4256 269.7156 14.34217423457846 IRIDIUM 130 1 43073U 17083D 26263.55684216 .00000016 00000+0 -15282-5 0 9992 2 43073 86.3919 282.4117 0001987 87.0071 273.1352 14.34217504457783 IRIDIUM 151 1 43074U 17083E 26263.60124001 .00000013 00000+0 -23267-5 0 9999 2 43074 86.3911 282.1682 0002072 90.8872 269.2562 14.34217707457815 IRIDIUM 134 1 43075U 17083F 26263.56952735 .00000010 00000+0 -34055-5 0 9992 2 43075 86.3911 282.1909 0002118 90.3530 269.7908 14.34217456457770 IRIDIUM 137 1 43076U 17083G 26263.58221224 .00000116 00000+0 34361-4 0 9992 2 43076 86.3916 282.2806 0002013 98.2139 261.9285 14.34217855457842 IRIDIUM 141 1 43077U 17083H 26263.57586974 -.00000009 00000+0 -10162-4 0 9994 2 43077 86.3908 282.1081 0002210 92.0478 268.0971 14.34217341457845 IRIDIUM 153 1 43078U 17083J 26263.94665774 .00000019 00000+0 -32181-6 0 9999 2 43078 86.3919 250.4145 0002304 86.3624 273.7835 14.34217409459007 IRIDIUM 131 1 43079U 17083K 26263.56318469 .00000017 00000+0 -10987-5 0 9991 2 43079 86.3916 282.3061 0002182 92.2946 267.8500 14.34217364457778 IRIDIUM 144 1 43249U 18030A 26263.46462197 .00000001 00000+0 -67216-5 0 9990 2 43249 86.3913 250.5428 0002061 88.1761 271.9671 14.34217559443791 IRIDIUM 149 1 43250U 18030B 26263.68027045 .00000051 00000+0 11151-4 0 9995 2 43250 86.3914 250.4185 0002342 88.2607 271.8858 14.34217772443844 IRIDIUM 157 1 43251U 18030C 26263.69929778 .00000087 00000+0 24059-4 0 9991 2 43251 86.3916 250.4658 0002264 88.0192 272.1263 14.34217899443824 IRIDIUM 140 1 43252U 18030D 26263.50901882 .00000079 00000+0 21051-4 0 9998 2 43252 86.3916 250.5579 0002274 87.2274 272.9182 14.34217832443859 IRIDIUM 145 1 43253U 18030E 26263.77540923 -.00000017 00000+0 -13075-4 0 9994 2 43253 86.3915 250.4185 0001892 85.8770 274.2642 14.34217214443828 IRIDIUM 146 1 43254U 18030F 26263.96568445 .00000094 00000+0 26345-4 0 9992 2 43254 86.3919 250.3507 0002179 88.0707 272.0738 14.34217835443869 IRIDIUM 148 1 43255U 18030G 26263.58513153 .00000103 00000+0 29700-4 0 9996 2 43255 86.3917 250.5546 0002259 90.4515 269.6940 14.34217606443847 IRIDIUM 142 1 43256U 18030H 26263.97202727 .00000008 00000+0 -41478-5 0 9994 2 43256 86.3913 250.2782 0002009 88.6342 271.5084 14.34217431443862 IRIDIUM 150 1 43257U 18030J 26263.45193550 .00000036 00000+0 58020-5 0 9992 2 43257 86.3918 250.6153 0002221 87.1217 273.0233 14.34217548443812 IRIDIUM 143 1 43258U 18030K 26263.92128698 .00000059 00000+0 14066-4 0 9992 2 43258 86.3921 250.5154 0002183 85.2678 274.8768 14.34217496443818 IRIDIUM 161 1 43478U 18047C 26263.42956713 .00000186 00000+0 49325-4 0 9993 2 43478 86.4469 48.6125 0002299 95.4977 264.6487 14.43279595438870 IRIDIUM 152 1 43479U 18047D 26263.68470239 .00000194 00000+0 62240-4 0 9996 2 43479 86.3947 48.3683 0002148 91.9969 268.1473 14.34217626436174 IRIDIUM 147 1 43480U 18047E 26263.69106561 .00000167 00000+0 52565-4 0 9992 2 43480 86.3948 48.3725 0002024 92.0168 268.1260 14.34214493436173 IRIDIUM 110 1 43481U 18047F 26263.69738736 .00000058 00000+0 13745-4 0 9994 2 43481 86.3953 48.4642 0002347 95.1505 264.9958 14.34217951436165 IRIDIUM 162 1 43482U 18047G 26263.70057944 .00000212 00000+0 57107-4 0 9994 2 43482 86.4470 48.3893 0002271 91.5636 268.5825 14.43276395438903 IRIDIUM 160 1 43569U 18061A 26263.29437821 .00000115 00000+0 34127-4 0 9995 2 43569 86.4011 17.0242 0002150 95.8413 264.3028 14.34218478427003 IRIDIUM 166 1 43570U 18061B 26263.38951921 .00000150 00000+0 46395-4 0 9998 2 43570 86.4008 16.9332 0002097 96.3169 263.8266 14.34216939427045 IRIDIUM 158 1 43571U 18061C 26263.84618689 .00000048 00000+0 10147-4 0 9993 2 43571 86.4011 16.7527 0002186 92.2682 267.8764 14.34217450427077 IRIDIUM 165 1 43572U 18061D 26263.59248244 .00000026 00000+0 20614-5 0 9999 2 43572 86.4010 16.9070 0002097 93.4666 266.6769 14.34217694427069 IRIDIUM 155 1 43573U 18061E 26263.55442647 .00000032 00000+0 44026-5 0 9999 2 43573 86.4009 16.7876 0002114 92.0710 268.0728 14.34217767427023 IRIDIUM 154 1 43574U 18061F 26263.60516728 .00000015 00000+0 -15622-5 0 9990 2 43574 86.4010 16.9046 0001963 95.0391 265.1029 14.34217626427088 IRIDIUM 163 1 43575U 18061G 26263.58613999 .00000137 00000+0 41967-4 0 9990 2 43575 86.4009 16.8247 0002188 94.6645 265.4801 14.34217985427052 IRIDIUM 156 1 43576U 18061H 26263.56076860 .00000102 00000+0 29463-4 0 9998 2 43576 86.4009 16.8427 0002124 91.4751 268.6689 14.34216637427047 IRIDIUM 164 1 43577U 18061J 26263.40220325 .00000151 00000+0 47007-4 0 9997 2 43577 86.4015 16.9510 0001997 96.1150 264.0274 14.34217252427067 IRIDIUM 159 1 43578U 18061K 26263.57979751 .00000020 00000+0 13561-6 0 9995 2 43578 86.4008 16.8114 0002217 95.2446 264.9002 14.34217513427050 IRIDIUM 180 1 43922U 19002A 26263.57929358 .00000036 00000+0 57248-5 0 9998 2 43922 86.3971 313.7440 0002257 95.6456 264.4997 14.34217753402665 IRIDIUM 176 1 43923U 19002B 26263.58566590 .00000375 00000+0 55584-4 0 9991 2 43923 86.6092 313.6714 0002409 92.7114 267.4379 14.72250352413285 IRIDIUM 168 1 43924U 19002C 26263.85202511 .00000113 00000+0 33422-4 0 9999 2 43924 86.3974 313.7098 0002258 95.1510 264.9944 14.34217397402689 IRIDIUM 173 1 43925U 19002D 26263.56026625 .00000027 00000+0 26925-5 0 9993 2 43925 86.3969 313.7166 0002273 93.1871 266.9585 14.34217415402623 IRIDIUM 169 1 43926U 19002E 26263.26542756 .00000167 00000+0 47964-4 0 9999 2 43926 86.4279 345.4659 0002235 84.7899 275.3554 14.38607033403895 IRIDIUM 172 1 43927U 19002F 26263.55392323 .00000127 00000+0 38160-4 0 9999 2 43927 86.3976 313.7276 0002317 94.5604 265.5857 14.34217373402634 IRIDIUM 175 1 43928U 19002G 26263.51311408 .00000120 00000+0 29450-4 0 9996 2 43928 86.4470 250.6525 0000926 265.0685 95.0410 14.43646556412731 IRIDIUM 171 1 43929U 19002H 26263.88373744 .00000075 00000+0 19841-4 0 9990 2 43929 86.3979 313.9067 0002137 93.4919 266.6521 14.34218016402675 IRIDIUM 170 1 43930U 19002J 26263.59182833 .00000378 00000+0 55994-4 0 9992 2 43930 86.6092 313.6705 0002452 93.2462 266.9036 14.72252429413295 IRIDIUM 167 1 43931U 19002K 26263.59832131 .00000045 00000+0 91716-5 0 9990 2 43931 86.3970 313.7323 0002053 90.0545 270.0886 14.34217409402631 IRIDIUM 181 1 56726U 23068S 26263.29571138 .00000093 00000+0 21565-4 0 9994 2 56726 86.4546 17.0265 0002190 98.7378 261.4072 14.43309341176150 IRIDIUM 177 1 56727U 23068T 26263.48344700 .00000254 00000+0 32245-4 0 9995 2 56727 86.1918 283.5846 0002562 90.4070 269.7442 14.77166079180453 IRIDIUM 174 1 56728U 23068U 26263.57947239 .00000365 00000+0 53967-4 0 9999 2 56728 86.6101 313.8329 0002599 90.8555 269.2960 14.72250444180059 IRIDIUM 178 1 56729U 23068V 26263.57365898 .00000593 00000+0 74893-4 0 9999 2 56729 86.6592 345.5305 0002533 93.0307 267.1205 14.80045626180476 IRIDIUM 179 1 56730U 23068W 26263.50068152 .00000599 00000+0 75690-4 0 9999 2 56730 86.6838 354.8177 0002382 90.7763 269.3732 14.80037817180464